This is the latest recevied weather packets stored in our database for station/object HK6RM-18. If no packets are shown the sender has not sent any weather packets the latest 10 day(s).
| Time | Temp. | Humidity | Pressure | Rain* | Wind** | Luminosity | Snow |
|---|---|---|---|---|---|---|---|
| 1777754966 | 17.22° C | 93% | 1013 hPa | 0 mm | - | - | - |
| 1777754060 | 17.78° C | 92% | 1013 hPa | 0 mm | - | - | - |
| 1777753160 | 18.33° C | 92% | 1013 hPa | 0 mm | - | - | - |
| 1777752259 | 17.78° C | 90% | 1013 hPa | 0 mm | - | - | - |
| 1777751354 | 18.33° C | 90% | 1013 hPa | 0 mm | - | - | - |
| 1777750448 | 18.89° C | 89% | 1013 hPa | 0 mm | - | - | - |
| 1777749547 | 17.78° C | 87% | 1013 hPa | 0 mm | - | - | - |
| 1777748647 | 18.33° C | 84% | 1013 hPa | 0 mm | - | - | - |
| 1777747746 | 18.89° C | 84% | 1013 hPa | 0 mm | - | - | - |
| 1777746845 | 17.78° C | 85% | 1013 hPa | 0 mm | - | - | - |
| 1777745944 | 18.33° C | 83% | 1014 hPa | 0 mm | - | - | - |
| 1777745044 | 18.89° C | 82% | 1014 hPa | 0 mm | - | - | - |
| 1777744140 | 19.44° C | 82% | 1014 hPa | 0 mm | - | - | - |
| 1777743240 | 20° C | 83% | 1014 hPa | 0 mm | - | - | - |
| 1777742339 | 20.56° C | 82% | 1015 hPa | 0 mm | - | - | - |
| 1777741438 | 21.11° C | 81% | 1015 hPa | 0 mm | - | - | - |
| 1777740533 | 21.67° C | 82% | 1015 hPa | 0 mm | - | - | - |
| 1777739630 | 22.78° C | 82% | 1015 hPa | 0 mm | - | - | - |
| 1777738729 | 18.89° C | 79% | 1015 hPa | 0 mm | - | - | - |
| 1777737829 | 19.44° C | 79% | 1015 hPa | 0 mm | - | - | - |
| 1777736929 | 18.89° C | 81% | 1015 hPa | 0 mm | - | - | - |
| 1777736026 | 18.89° C | 82% | 1015 hPa | 0 mm | - | - | - |
| 1777735123 | 19.44° C | 80% | 1015 hPa | 0 mm | - | - | - |
| 1777734223 | 18.89° C | 79% | 1015 hPa | 0 mm | - | - | - |
| 1777733322 | 19.44° C | 79% | 1015 hPa | 0 mm | - | - | - |
* Rain latest hour (hover to see other rain measurements)
** Current wind speed in m/s (hover to see current wind gust speed)